TimeCDT,TemperatureF,Dew PointF,Humidity,Sea Level PressureIn,VisibilityMPH,Wind Direction,Wind SpeedMPH,Gust SpeedMPH,PrecipitationIn,Events,Conditions,WindDirDegrees,DateUTC
12:15 AM,50.0,46.4,87,29.81,10.0,Calm,Calm,-,0.01,Rain,Light Rain,0,2012-10-09 05:15:00
12:55 AM,48.2,46.4,93,29.80,10.0,South,5.8,-,0.01,,Overcast,170,2012-10-09 05:55:00
1:15 AM,48.2,46.4,93,29.79,10.0,SSE,4.6,-,N/A,,Mostly Cloudy,160,2012-10-09 06:15:00
1:55 AM,50.0,46.4,87,29.78,10.0,South,9.2,-,0.01,Rain,Rain,170,2012-10-09 06:55:00
2:35 AM,50.0,46.4,87,29.78,10.0,South,9.2,-,0.01,Rain,Rain,180,2012-10-09 07:35:00
2:55 AM,50.0,46.4,87,29.77,10.0,South,9.2,-,0.02,Rain,Light Rain,180,2012-10-09 07:55:00
3:15 AM,50.0,46.4,87,29.78,10.0,SSW,6.9,-,N/A,Rain,Rain,200,2012-10-09 08:15:00
3:35 AM,50.0,46.4,87,29.77,10.0,SSW,6.9,-,N/A,,Light Drizzle,200,2012-10-09 08:35:00
3:55 AM,50.0,46.4,87,29.77,10.0,SSW,8.1,-,N/A,Rain,Light Rain,200,2012-10-09 08:55:00
4:15 AM,50.0,46.4,87,29.76,10.0,SSW,5.8,-,N/A,,Light Drizzle,200,2012-10-09 09:15:00
4:35 AM,50.0,46.4,87,29.76,10.0,Calm,Calm,-,N/A,Rain,Light Rain,0,2012-10-09 09:35:00
4:55 AM,48.2,46.4,93,29.77,10.0,WSW,3.5,-,N/A,Rain,Light Rain,240,2012-10-09 09:55:00
5:15 AM,48.2,46.4,93,29.77,10.0,Calm,Calm,-,0.01,Rain,Light Rain,0,2012-10-09 10:15:00
5:35 AM,48.2,46.4,93,29.77,10.0,WSW,3.5,-,0.01,,Overcast,240,2012-10-09 10:35:00
5:55 AM,48.2,46.4,93,29.78,10.0,WSW,3.5,-,0.01,,Overcast,240,2012-10-09 10:55:00
6:15 AM,48.2,46.4,93,29.79,10.0,West,4.6,-,N/A,Rain,Rain,260,2012-10-09 11:15:00
6:55 AM,50.0,44.6,82,29.79,10.0,West,8.1,-,N/A,,Overcast,280,2012-10-09 11:55:00
7:15 AM,50.0,44.6,82,29.79,10.0,West,9.2,-,N/A,,Overcast,280,2012-10-09 12:15:00
7:35 AM,50.0,44.6,82,29.79,10.0,West,6.9,-,N/A,,Overcast,270,2012-10-09 12:35:00
7:55 AM,50.0,44.6,82,29.78,10.0,West,8.1,-,N/A,,Overcast,280,2012-10-09 12:55:00
8:15 AM,50.0,44.6,82,29.78,10.0,West,6.9,-,N/A,,Overcast,280,2012-10-09 13:15:00
8:35 AM,50.0,44.6,82,29.79,10.0,West,8.1,-,N/A,Rain,Light Rain,280,2012-10-09 13:35:00
8:55 AM,50.0,42.8,76,29.80,10.0,West,10.4,17.3,0.01,Rain,Light Rain,270,2012-10-09 13:55:00
9:15 AM,50.0,42.8,76,29.82,10.0,WNW,17.3,21.9,0.01,Rain,Light Rain,290,2012-10-09 14:15:00
9:35 AM,46.4,39.2,76,29.83,10.0,NW,15.0,19.6,0.02,Rain,Light Rain,310,2012-10-09 14:35:00
9:55 AM,44.6,37.4,76,29.84,7.0,NW,16.1,26.5,0.03,Rain,Light Rain,320,2012-10-09 14:55:00
10:15 AM,42.8,37.4,81,29.86,10.0,NW,15.0,18.4,0.01,Rain,Light Rain,320,2012-10-09 15:15:00
10:35 AM,42.8,37.4,81,29.86,10.0,NW,9.2,-,0.03,Rain,Rain,310,2012-10-09 15:35:00
10:55 AM,42.8,39.2,87,29.86,10.0,NW,6.9,-,0.05,Rain,Rain,310,2012-10-09 15:55:00
11:15 AM,42.8,41.0,93,29.86,10.0,WNW,8.1,-,N/A,Rain,Light Rain,300,2012-10-09 16:15:00
11:35 AM,42.8,41.0,93,29.86,10.0,WNW,10.4,-,N/A,Rain,Light Rain,290,2012-10-09 16:35:00
11:55 AM,42.8,41.0,93,29.86,10.0,WNW,10.4,-,N/A,Rain,Light Rain,290,2012-10-09 16:55:00
12:15 PM,44.6,39.2,81,29.86,10.0,WNW,13.8,-,N/A,,Scattered Clouds,290,2012-10-09 17:15:00
12:35 PM,44.6,37.4,76,29.86,10.0,West,13.8,19.6,N/A,,Clear,270,2012-10-09 17:35:00
12:55 PM,44.6,37.4,76,29.86,10.0,West,10.4,-,N/A,,Scattered Clouds,280,2012-10-09 17:55:00
1:15 PM,46.4,37.4,71,29.86,10.0,WNW,12.7,17.3,N/A,,Overcast,290,2012-10-09 18:15:00
1:35 PM,46.4,35.6,66,29.86,10.0,WNW,18.4,-,N/A,,Mostly Cloudy,300,2012-10-09 18:35:00
1:55 PM,46.4,33.8,62,29.85,10.0,WNW,17.3,21.9,N/A,,Scattered Clouds,290,2012-10-09 18:55:00
2:15 PM,46.4,33.8,62,29.86,10.0,WNW,18.4,24.2,N/A,,Clear,290,2012-10-09 19:15:00
2:35 PM,46.4,32.0,57,29.86,10.0,WNW,19.6,25.3,N/A,,Scattered Clouds,290,2012-10-09 19:35:00
2:55 PM,46.4,32.0,57,29.86,10.0,West,19.6,24.2,N/A,,Scattered Clouds,280,2012-10-09 19:55:00
3:15 PM,46.4,30.2,53,29.86,10.0,West,18.4,21.9,N/A,,Clear,280,2012-10-09 20:15:00
3:35 PM,46.4,30.2,53,29.87,10.0,WNW,17.3,21.9,N/A,,Mostly Cloudy,290,2012-10-09 20:35:00
3:55 PM,46.4,30.2,53,29.87,10.0,NW,20.7,26.5,N/A,,Overcast,310,2012-10-09 20:55:00
4:15 PM,46.4,28.4,50,29.88,10.0,NW,18.4,24.2,N/A,,Overcast,310,2012-10-09 21:15:00
4:35 PM,46.4,26.6,46,29.89,10.0,WNW,20.7,26.5,N/A,,Overcast,300,2012-10-09 21:35:00
4:55 PM,44.6,28.4,53,29.89,10.0,WNW,20.7,26.5,N/A,,Scattered Clouds,300,2012-10-09 21:55:00
5:15 PM,44.6,28.4,53,29.89,10.0,NW,17.3,24.2,N/A,,Mostly Cloudy,310,2012-10-09 22:15:00
5:35 PM,44.6,28.4,53,29.90,10.0,WNW,16.1,-,N/A,,Scattered Clouds,300,2012-10-09 22:35:00
5:55 PM,44.6,30.2,57,29.91,10.0,WNW,13.8,-,N/A,,Scattered Clouds,300,2012-10-09 22:55:00
6:15 PM,42.8,30.2,61,29.91,10.0,WNW,11.5,-,N/A,,Mostly Cloudy,290,2012-10-09 23:15:00
6:35 PM,44.6,28.4,53,29.92,10.0,NW,15.0,21.9,N/A,,Mostly Cloudy,310,2012-10-09 23:35:00
6:55 PM,42.8,30.2,61,29.93,10.0,NW,16.1,19.6,N/A,,Overcast,310,2012-10-09 23:55:00
7:15 PM,42.8,28.4,57,29.95,10.0,NW,17.3,24.2,N/A,,Mostly Cloudy,320,2012-10-10 00:15:00
7:35 PM,41.0,28.4,61,29.96,10.0,NW,13.8,21.9,N/A,,Mostly Cloudy,320,2012-10-10 00:35:00
7:55 PM,41.0,30.2,65,29.98,10.0,NW,11.5,-,N/A,,Mostly Cloudy,310,2012-10-10 00:55:00
8:15 PM,41.0,28.4,61,29.98,10.0,NW,13.8,-,N/A,,Overcast,310,2012-10-10 01:15:00
8:35 PM,41.0,28.4,61,29.99,10.0,WNW,18.4,24.2,N/A,,Overcast,300,2012-10-10 01:35:00
8:55 PM,41.0,26.6,57,30.00,10.0,NW,19.6,26.5,N/A,,Mostly Cloudy,310,2012-10-10 01:55:00
9:15 PM,37.4,24.8,60,30.00,10.0,NW,15.0,21.9,N/A,,Clear,320,2012-10-10 02:15:00
9:35 PM,37.4,26.6,65,30.01,10.0,NW,11.5,-,N/A,,Clear,310,2012-10-10 02:35:00
9:55 PM,35.6,26.6,70,30.01,10.0,WNW,11.5,-,N/A,,Clear,300,2012-10-10 02:55:00
10:15 PM,35.6,26.6,70,30.02,10.0,WNW,11.5,-,N/A,,Clear,300,2012-10-10 03:15:00
10:35 PM,35.6,26.6,70,30.02,10.0,WNW,10.4,-,N/A,,Clear,300,2012-10-10 03:35:00
10:55 PM,33.8,26.6,75,30.02,10.0,WNW,10.4,-,N/A,,Clear,300,2012-10-10 03:55:00
11:15 PM,33.8,26.6,75,30.03,10.0,WNW,8.1,-,N/A,,Clear,300,2012-10-10 04:15:00
11:35 PM,32.0,26.6,80,30.04,10.0,WNW,9.2,-,N/A,,Clear,300,2012-10-10 04:35:00
11:55 PM,32.0,26.6,80,30.04,10.0,WNW,8.1,-,N/A,,Clear,290,2012-10-10 04:55:00